Погода в Покровском

Украина / Полтавская область     50°02′23″N   33°19′17″E
темп.,
°C
ветер,
м/с
пор.,
м/с
влажн.,
%
обл.,
%
осадки,
мм/ч
давл.,
гПа
погр.,
м
21 января, пт
пт2123:00−3ююз4797100 0.6 1007276
02:00−3ююз4997100 2.7 1005341
05:00−1з6109199 0.6 1004610
08:00−3зюз61189100 0.6 1005664
11:00−3зюз71386100 0.0 1006795
14:00−2зюз8128196 0.1 10051073
17:00−4зюз8158791 0.0 1005721
20:00−3зюз8158889 0.1 1006670
22 января, сб
сб2223:00−4юз7138898 0.0 1006624
02:00−4юз61394100 0.1 1006556
05:00−4юз61296100 0.6 1006533
08:00−3зюз51095100 1.0 1007523
11:00−3зюз5890100 0.1 1009626
14:00−3зюз589181 0.3 1010662
17:00−5юз3896100 0.1 1011239
20:00−5юз489784 0.2 1012217
23 января, вс
вс2323:00−7сз249561 0.3 101472
02:00−11сз249876 0.3 101644
05:00−10ссз229873 0.0 101753
08:00−12св229986 0.1 102019
11:00−8св349274 0.0 1021187
14:00−6св4590100 0.0 1023341
17:00−8ссв369795 0.1 1026107
20:00−10ссв379766 0.1 1028121
24 января, пн
пн2423:00−10ссв41095100 0.0 1029203
02:00−10ссв5139298 0.0 1029282
05:00−9с61590100 0.0 1028363
08:00−8ссв71693100 0.2 1029515
11:00−6ссв7139299 0.8 1029491
14:00−5ссв6119297 0.9 1028474
17:00−7ссв5109470 0.0 1030275
20:00−8ссв51293100 0.0 1030310
25 января, вт
вт2523:00−9с51194100 0.0 1030257
02:00−9ссв51193100 0.0 1029274
05:00−10с51093100 0.0 1028249
08:00−10с4893100 0.0 1029220
11:00−8с468985 0.0 1028250
14:00−7с4688100 0.0 1026314
17:00−9с3695100 0.0 1026145
20:00−12с229777 0.0 102536